Location: Newark
(31.4565°N, 75.7559°E)
Time: 16:31:41
(UTC+00:00)

Envisat - Visible Passes

Search period start: 27 January 2020 00:00
Search period end: 06 February 2020 00:00
Orbit: 764 x 766 km, 98.1° (Epoch: 27 January)

Date Brightness Start Highest point End Pass type
(mag) Time Alt. Az. Time Alt. Az. Time Alt. Az.
27 Jan 3.0 12:51:07 10° SSE 12:56:12 83° ENE 13:01:17 10° N visible
28 Jan 4.4 01:05:28 10° NNE 01:10:18 43° E 01:15:05 10° S visible
28 Jan 5.7 13:54:47 10° SW 13:58:35 21° W 14:02:24 10° NW visible
29 Jan 6.0 00:30:00 10° NE 00:33:20 18° E 00:36:41 10° SE visible
29 Jan 3.9 13:16:44 10° S 13:21:40 52° W 13:26:37 10° NNW visible
30 Jan 6.4 14:23:08 10° WSW 14:24:16 11° W 14:25:24 10° W visible
31 Jan 5.0 00:54:24 10° NE 00:58:57 33° E 01:03:30 10° SSE visible
31 Jan 5.2 13:42:57 10° SSW 13:47:14 27° W 13:51:32 10° NW visible
01 Feb 6.3 00:19:34 10° ENE 00:21:58 13° E 00:24:20 10° ESE visible
01 Feb 3.4 13:05:20 10° S 13:10:22 69° W 13:15:26 10° NNW visible
02 Feb 3.6 01:19:27 10° NNE 01:24:30 63° E 01:29:31 10° S visible
02 Feb 6.2 14:10:08 10° SW 14:12:53 15° W 14:15:37 10° WNW visible
03 Feb 5.5 00:43:27 10° NE 00:47:37 25° E 00:51:46 10° SSE visible
03 Feb 4.7 13:31:16 10° SSW 13:35:54 36° W 13:40:33 10° NNW visible
04 Feb 3.1 12:54:00 10° SSE 12:59:05 89° WSW 13:04:11 10° NNW visible
05 Feb 4.2 01:08:18 10° NNE 01:13:11 48° E 01:18:04 10° S visible
05 Feb 5.8 13:57:56 10° SW 14:01:30 19° W 14:05:05 10° NW visible
